Regional Weather Roundup
Issued by NWS

Home | Current Version | Previous Version | Graphics & Text | Print | Product List | Glossary On
Versions: 1 2 3 4 5 6 7 8 9 10 11 12 13 14 15 16 17 18 19 20 21 22 23 24 25 26 27 28
000
ASUS45 KSLC 160510
RWRUT

UTAH REGIONAL WEATHER ROUNDUP
NATIONAL WEATHER SERVICE SALT LAKE CITY UT
1100 PM MDT TUE AUG 15 2017

UTZ001>011-023>025-160600-

NORTHERN UTAH

CITY           SKY/WX    TMP DP  RH WIND       PRES   REMARKS
BRIGHAM CITY   CLEAR     67  46  48 CALM      29.98S
HILL AFB       CLEAR     65  34  31 E13       30.01R
LOGAN          CLEAR     64  45  49 E3        29.99R
OGDEN          CLEAR     65  37  35 S8        29.98R
SALT LAKE CITY CLEAR     70  37  29 S5        29.97S
TOOELE VALLEY  CLEAR     59  39  47 SE6       29.99S
WENDOVER       CLEAR     71  34  25 W6        29.97R
HEBER CITY     CLEAR     54  43  66 CALM      30.05S
WEST JORDAN    CLEAR     63  41  45 W7        30.01R

$$

UTZ011>015-024>027-160600-

CENTRAL/NORTHEAST UTAH

CITY           SKY/WX    TMP DP  RH WIND       PRES   REMARKS
PROVO AIRPORT  CLEAR     65  48  54 SE8       30.00R
MOAB/CANYONLAN PTCLDY    72  31  22 CALM      29.96R
DELTA          CLEAR     64  37  36 NE5       29.99S
PRICE          CLEAR     57  46  66 N8        30.07S
RICHFIELD      CLEAR     64  41  42 CALM      30.05S
ROOSEVELT      PTCLDY    55  52  88 SW7       30.11S
VERNAL         CLOUDY    58  52  80 W6        30.08S

$$

UTZ013>016-019>022-027-160600-

SOUTHERN UTAH

CITY           SKY/WX    TMP DP  RH WIND       PRES   REMARKS
BRYCE CANYON   CLEAR     50  37  61 W9        30.20R
CEDAR CITY     PTCLDY    64  35  34 SE7       30.05S
MILFORD        MOCLDY    69  41  36 W9        29.99R
ST GEORGE      CLEAR     79  34  19 CALM      29.87R
HANKSVILLE     PTCLDY    64  28  25 CALM      29.97S
KANAB          CLEAR     59  34  38 SE2       30.05R
BLANDING       PTCLDY    62  35  36 CALM      30.15S

$$

REGIONAL REPORTS     COLORADO/ARIZONA

CITY           SKY/WX    TMP DP  RH WIND       PRES   REMARKS
CRAIG, CO      CLOUDY    52  46  80 CALM      30.15R
GRAND JUNCTION CLOUDY    71  40  32 N8        30.00R
RIFLE, CO      CLOUDY    64  44  48 NW12G21   30.08R
MONTROSE, CO   MOCLDY    65  34  31 S10       30.08R
CORTEZ, CO     CLOUDY    55  38  52 E3        30.09S
COLORADO CITY    N/A     59  41  51 CALM      30.05R
PAGE, AZ       CLEAR     76  24  14 S7        29.95R
GRAND CANYON   CLEAR     47  29  49 CALM      30.17R
KINGMAN, AZ    CLEAR     69  40  34 SE8       29.92R
FLAGSTAFF, AZ  CLEAR     49  38  65 CALM      30.20R

$$

REGIONAL REPORTS    NEVADA/IDAHO/WYOMING

CITY           SKY/WX    TMP DP  RH WIND       PRES   REMARKS
LAS VEGAS, NV  CLEAR     89  34  14 S9        29.78R
ELY, NY        CLEAR     61  33  35 S12       30.06R
ELKO, NV       PTCLDY    67  29  24 E7        29.99R
POCATELLO, ID  CLEAR     61  43  51 E3        30.00R
BURLEY, ID     CLEAR     57  44  62 CALM      29.96R
FORT BRIDGER,    N/A     54  44  69 NE7       30.19R
EVANSTON, WY   CLEAR     58  30  34 CALM      30.16R
ROCK SPRINGS,  CLOUDY    53  46  77 NW10      30.15S
KEMMERER, WY     N/A     54  41  62 CALM      30.18R

$$




USA.gov is the U.S. government's official web portal to all federal, state and local government web resources and services.